Time,TemperatureF,DewpointF,PressureIn,WindDirection,WindDirectionDegrees,WindSpeedMPH,WindSpeedGustMPH,Humidity,HourlyPrecipIn,Conditions,Clouds,dailyrainin,SoftwareType,DateUTC
2013-02-26 00:01:00,29.0,24.0,30.03,SSE,158,9.0,47.0,80,0.00,,,0.00,,2013-02-26 05:01:00,
2013-02-26 00:11:00,29.0,24.0,30.03,SSE,158,1.0,58.0,80,0.00,,,0.00,,2013-02-26 05:11:00,
2013-02-26 00:22:00,29.0,24.0,30.03,SSE,158,1.0,58.0,80,0.00,,,0.00,,2013-02-26 05:22:00,
2013-02-26 00:32:00,29.0,24.0,30.03,SE,135,12.0,53.0,80,0.00,,,0.00,,2013-02-26 05:32:00,
2013-02-26 00:42:00,29.0,24.0,30.03,SE,135,12.0,53.0,80,0.00,,,0.00,,2013-02-26 05:42:00,
2013-02-26 00:52:00,29.0,24.0,30.03,SE,135,0.0,56.0,80,0.00,,,0.00,,2013-02-26 05:52:00,
2013-02-26 01:01:00,29.0,24.0,30.03,SSE,158,0.0,0.0,81,0.00,,,0.00,,2013-02-26 06:01:00,
2013-02-26 01:11:00,29.0,24.0,30.03,SSE,158,0.0,0.0,81,0.00,,,0.00,,2013-02-26 06:11:00,
2013-02-26 01:21:00,29.0,24.0,30.03,SSE,158,0.0,0.0,81,0.00,,,0.00,,2013-02-26 06:21:00,
2013-02-26 01:32:00,29.0,24.0,30.04,ESE,112,0.0,0.0,81,0.00,,,0.00,,2013-02-26 06:32:00,
2013-02-26 01:41:00,29.0,24.0,30.04,ESE,112,0.0,0.0,81,0.00,,,0.00,,2013-02-26 06:41:00,
2013-02-26 01:52:00,29.0,24.0,30.04,ESE,112,0.0,0.0,81,0.00,,,0.00,,2013-02-26 06:52:00,
2013-02-26 02:01:00,29.0,24.0,30.05,South,180,0.0,0.0,82,0.00,,,0.00,,2013-02-26 07:01:00,
2013-02-26 02:11:00,29.0,24.0,30.05,South,180,0.0,0.0,82,0.00,,,0.00,,2013-02-26 07:11:00,
2013-02-26 02:22:00,29.0,24.0,30.05,SSW,202,0.0,0.0,82,0.00,,,0.00,,2013-02-26 07:22:00,
2013-02-26 02:32:00,29.0,24.0,30.05,SE,142,2.0,2.0,82,0.00,,,0.00,,2013-02-26 07:32:00,
2013-02-26 02:41:00,29.0,24.0,30.05,SE,142,2.0,2.0,82,0.00,,,0.00,,2013-02-26 07:41:00,
2013-02-26 02:52:00,29.0,24.0,30.06,SE,135,0.0,2.0,82,0.00,,,0.00,,2013-02-26 07:52:00,
2013-02-26 03:01:00,28.0,23.0,30.05,East,91,0.0,0.0,82,0.00,,,0.00,,2013-02-26 08:01:00,
2013-02-26 03:11:00,28.0,23.0,30.06,SSW,202,1.0,1.0,82,0.00,,,0.00,,2013-02-26 08:11:00,
2013-02-26 03:21:00,28.0,23.0,30.06,SSW,202,1.0,1.0,82,0.00,,,0.00,,2013-02-26 08:21:00,
2013-02-26 03:31:00,29.0,24.0,30.06,SSW,202,1.0,41.0,82,0.00,,,0.00,,2013-02-26 08:31:00,
2013-02-26 03:42:00,29.0,24.0,30.06,SSW,202,1.0,41.0,82,0.00,,,0.00,,2013-02-26 08:42:00,
2013-02-26 03:52:00,29.0,24.0,30.05,SSW,194,0.0,54.0,81,0.00,,,0.00,,2013-02-26 08:52:00,
2013-02-26 04:01:00,29.0,24.0,30.04,NE,52,0.0,2.0,80,0.00,,,0.00,,2013-02-26 09:01:00,
2013-02-26 04:11:00,29.0,24.0,30.04,NE,52,0.0,2.0,80,0.00,,,0.00,,2013-02-26 09:11:00,
2013-02-26 04:21:00,29.0,24.0,30.04,NE,52,0.0,2.0,80,0.00,,,0.00,,2013-02-26 09:21:00,
2013-02-26 04:31:00,29.0,24.0,30.04,North,0,0.0,48.0,80,0.00,,,0.00,,2013-02-26 09:31:00,
2013-02-26 04:43:00,29.0,24.0,30.04,North,0,0.0,48.0,80,0.00,,,0.00,,2013-02-26 09:43:00,
2013-02-26 04:52:00,28.0,23.0,30.04,NE,45,0.0,0.0,80,0.00,,,0.00,,2013-02-26 09:52:00,
2013-02-26 05:01:00,28.0,23.0,30.04,NE,45,0.0,31.0,81,0.00,,,0.00,,2013-02-26 10:01:00,
2013-02-26 05:11:00,28.0,23.0,30.04,NE,45,0.0,31.0,81,0.00,,,0.00,,2013-02-26 10:11:00,
2013-02-26 05:21:00,28.0,23.0,30.04,NE,45,0.0,0.0,81,0.00,,,0.00,,2013-02-26 10:21:00,
2013-02-26 05:31:00,28.0,23.0,30.04,NE,45,0.0,0.0,81,0.00,,,0.00,,2013-02-26 10:31:00,
2013-02-26 05:41:00,28.0,23.0,30.04,NE,45,0.0,0.0,81,0.00,,,0.00,,2013-02-26 10:41:00,
2013-02-26 05:52:00,28.0,23.0,30.03,SE,135,0.0,3.0,82,0.00,,,0.00,,2013-02-26 10:52:00,
2013-02-26 06:01:00,28.0,23.0,30.03,SSE,158,0.0,0.0,82,0.00,,,0.00,,2013-02-26 11:01:00,
2013-02-26 06:12:00,28.0,23.0,30.03,SSE,158,0.0,0.0,82,0.00,,,0.00,,2013-02-26 11:12:00,
2013-02-26 06:21:00,28.0,23.0,30.03,SSW,202,0.0,0.0,82,0.00,,,0.00,,2013-02-26 11:21:00,
2013-02-26 06:32:00,28.0,23.0,30.03,SSW,202,0.0,0.0,82,0.00,,,0.00,,2013-02-26 11:32:00,
2013-02-26 06:42:00,28.0,23.0,30.03,SSW,202,0.0,0.0,82,0.00,,,0.00,,2013-02-26 11:42:00,
2013-02-26 06:52:00,28.0,23.0,30.03,SSE,158,0.0,0.0,82,0.00,,,0.00,,2013-02-26 11:52:00,
2013-02-26 07:01:00,28.0,23.0,30.03,SSE,158,0.0,0.0,82,0.00,,,0.00,,2013-02-26 12:01:00,
2013-02-26 07:11:00,28.0,23.0,30.03,SSE,158,0.0,0.0,82,0.00,,,0.00,,2013-02-26 12:11:00,
2013-02-26 07:22:00,27.0,22.0,30.03,SSE,158,2.0,49.0,82,0.00,,,0.00,,2013-02-26 12:22:00,
2013-02-26 07:32:00,27.0,22.0,30.03,SSE,159,0.0,48.0,82,0.00,,,0.00,,2013-02-26 12:32:00,
2013-02-26 07:42:00,27.0,22.0,30.03,SSE,159,0.0,48.0,82,0.00,,,0.00,,2013-02-26 12:42:00,
2013-02-26 07:53:00,26.0,21.0,30.03,South,172,0.0,0.0,82,0.00,,,0.00,,2013-02-26 12:53:00,
2013-02-26 08:01:00,26.0,21.0,30.03,SSW,204,0.0,46.0,82,0.00,,,0.00,,2013-02-26 13:01:00,
2013-02-26 08:11:00,26.0,21.0,30.03,SSW,204,0.0,46.0,82,0.00,,,0.00,,2013-02-26 13:11:00,
2013-02-26 08:21:00,25.0,20.0,30.04,SSW,202,0.0,46.0,82,0.00,,,0.00,,2013-02-26 13:21:00,
2013-02-26 08:32:00,25.0,21.0,30.05,SSE,148,17.0,56.0,83,0.00,,,0.00,,2013-02-26 13:32:00,
2013-02-26 08:42:00,25.0,21.0,30.05,SSE,148,17.0,56.0,83,0.00,,,0.00,,2013-02-26 13:42:00,
2013-02-26 08:52:00,26.0,22.0,30.06,SSW,202,40.0,58.0,83,0.00,,,0.00,,2013-02-26 13:52:00,
2013-02-26 09:01:00,27.0,23.0,30.06,SSE,158,21.0,52.0,83,0.00,,,0.00,,2013-02-26 14:01:00,
2013-02-26 09:11:00,27.0,23.0,30.06,SSE,158,21.0,52.0,83,0.00,,,0.00,,2013-02-26 14:11:00,
2013-02-26 09:21:00,28.0,24.0,30.06,ESE,107,1.0,54.0,83,0.00,,,0.00,,2013-02-26 14:21:00,
2013-02-26 09:32:00,29.0,24.0,30.05,SSE,152,22.0,47.0,82,0.00,,,0.00,,2013-02-26 14:32:00,
2013-02-26 09:42:00,29.0,24.0,30.05,SSE,152,22.0,47.0,82,0.00,,,0.00,,2013-02-26 14:42:00,
2013-02-26 09:52:00,31.0,26.0,30.04,SSE,158,1.0,2.0,81,0.00,,,0.00,,2013-02-26 14:52:00,
2013-02-26 10:02:00,32.0,27.0,30.04,SSE,158,1.0,5.0,80,0.00,,,0.00,,2013-02-26 15:02:00,
2013-02-26 10:11:00,32.0,27.0,30.04,SSE,158,1.0,5.0,80,0.00,,,0.00,,2013-02-26 15:11:00,
2013-02-26 10:21:00,34.0,28.0,30.03,East,85,2.0,36.0,79,0.00,,,0.00,,2013-02-26 15:21:00,
2013-02-26 10:32:00,35.0,28.0,30.03,East,90,3.0,7.0,76,0.00,,,0.00,,2013-02-26 15:32:00,
2013-02-26 10:42:00,35.0,28.0,30.03,East,90,3.0,7.0,76,0.00,,,0.00,,2013-02-26 15:42:00,
2013-02-26 10:52:00,38.0,30.0,30.03,ESE,112,18.0,46.0,74,0.00,,,0.00,,2013-02-26 15:52:00,
2013-02-26 11:01:00,39.0,30.0,30.03,ENE,68,3.0,7.0,70,0.00,,,0.00,,2013-02-26 16:01:00,
2013-02-26 11:11:00,39.0,30.0,30.03,ENE,68,3.0,7.0,70,0.00,,,0.00,,2013-02-26 16:11:00,
2013-02-26 11:22:00,40.0,30.0,30.04,NNE,22,1.0,5.0,67,0.00,,,0.00,,2013-02-26 16:22:00,
2013-02-26 11:32:00,41.0,30.0,30.03,NNE,22,4.0,7.0,65,0.00,,,0.00,,2013-02-26 16:32:00,
2013-02-26 11:42:00,41.0,30.0,30.03,NNE,22,4.0,7.0,65,0.00,,,0.00,,2013-02-26 16:42:00,
2013-02-26 11:52:00,41.0,30.0,30.03,ESE,112,5.0,22.0,65,0.00,,,0.00,,2013-02-26 16:52:00,
2013-02-26 12:01:00,41.0,29.0,30.03,East,96,1.0,36.0,63,0.00,,,0.00,,2013-02-26 17:01:00,
2013-02-26 12:11:00,40.0,28.0,30.03,East,97,4.0,5.0,63,0.00,,,0.00,,2013-02-26 17:11:00,
2013-02-26 12:21:00,40.0,28.0,30.03,East,97,4.0,5.0,63,0.00,,,0.00,,2013-02-26 17:21:00,
2013-02-26 12:32:00,40.0,28.0,30.03,NE,34,4.0,38.0,62,0.00,,,0.00,,2013-02-26 17:32:00,
2013-02-26 12:41:00,40.0,28.0,30.03,NE,34,4.0,38.0,62,0.00,,,0.00,,2013-02-26 17:41:00,
2013-02-26 12:52:00,39.0,27.0,30.02,ENE,68,4.0,38.0,63,0.00,,,0.00,,2013-02-26 17:52:00,
2013-02-26 13:01:00,38.0,27.0,30.01,East,90,3.0,6.0,63,0.00,,,0.00,,2013-02-26 18:01:00,
2013-02-26 13:12:00,38.0,27.0,30.01,East,90,3.0,6.0,63,0.00,,,0.00,,2013-02-26 18:12:00,
2013-02-26 13:21:00,38.0,27.0,30.01,NE,45,10.0,20.0,65,0.00,,,0.00,,2013-02-26 18:21:00,
2013-02-26 13:32:00,38.0,28.0,30.01,ENE,68,1.0,23.0,66,0.00,,,0.00,,2013-02-26 18:32:00,
2013-02-26 13:42:00,38.0,28.0,30.01,ENE,68,1.0,23.0,66,0.00,,,0.00,,2013-02-26 18:42:00,
2013-02-26 13:52:00,38.0,28.0,30.00,ENE,67,2.0,5.0,67,0.00,,,0.00,,2013-02-26 18:52:00,
2013-02-26 14:01:00,38.0,28.0,29.99,East,90,5.0,8.0,66,0.00,,,0.00,,2013-02-26 19:01:00,
2013-02-26 14:11:00,38.0,28.0,29.99,East,90,5.0,8.0,66,0.00,,,0.00,,2013-02-26 19:11:00,
2013-02-26 14:22:00,38.0,27.0,29.98,NE,45,4.0,6.0,64,0.00,,,0.00,,2013-02-26 19:22:00,
2013-02-26 14:32:00,38.0,27.0,29.97,SSE,158,2.0,6.0,64,0.00,,,0.00,,2013-02-26 19:32:00,
2013-02-26 14:41:00,38.0,27.0,29.97,SSE,158,2.0,6.0,64,0.00,,,0.00,,2013-02-26 19:41:00,
2013-02-26 14:52:00,38.0,27.0,29.96,SE,135,3.0,31.0,63,0.00,,,0.00,,2013-02-26 19:52:00,
2013-02-26 15:01:00,38.0,27.0,29.96,NNE,22,4.0,5.0,63,0.00,,,0.00,,2013-02-26 20:01:00,
2013-02-26 15:11:00,38.0,27.0,29.96,NNE,22,4.0,5.0,63,0.00,,,0.00,,2013-02-26 20:11:00,
2013-02-26 15:21:00,37.0,26.0,29.96,NE,45,6.0,6.0,65,0.00,,,0.00,,2013-02-26 20:21:00,
2013-02-26 15:32:00,37.0,27.0,29.95,NE,45,5.0,6.0,67,0.00,,,0.00,,2013-02-26 20:32:00,
2013-02-26 15:41:00,37.0,27.0,29.95,NE,45,5.0,6.0,67,0.00,,,0.00,,2013-02-26 20:41:00,
2013-02-26 15:52:00,37.0,27.0,29.96,ESE,113,4.0,9.0,67,0.00,,,0.00,,2013-02-26 20:52:00,
2013-02-26 16:01:00,36.0,26.0,29.96,ESE,112,2.0,9.0,67,0.00,,,0.00,,2013-02-26 21:01:00,
2013-02-26 16:11:00,36.0,26.0,29.96,ESE,112,2.0,9.0,67,0.00,,,0.00,,2013-02-26 21:11:00,
2013-02-26 16:21:00,35.0,25.0,29.96,East,90,3.0,8.0,67,0.00,,,0.00,,2013-02-26 21:21:00,
2013-02-26 16:31:00,35.0,25.0,29.96,NE,45,2.0,10.0,67,0.00,,,0.00,,2013-02-26 21:31:00,
2013-02-26 16:41:00,35.0,25.0,29.96,NE,45,2.0,10.0,67,0.00,,,0.00,,2013-02-26 21:41:00,
2013-02-26 16:51:00,34.0,25.0,29.96,NE,45,2.0,6.0,68,0.00,,,0.00,,2013-02-26 21:51:00,
2013-02-26 17:01:00,34.0,25.0,29.95,NNE,22,7.0,9.0,69,0.00,,,0.00,,2013-02-26 22:01:00,
2013-02-26 17:11:00,34.0,25.0,29.95,ENE,68,2.0,23.0,69,0.00,,,0.00,,2013-02-26 22:11:00,
2013-02-26 17:21:00,34.0,25.0,29.95,ENE,68,2.0,23.0,69,0.00,,,0.00,,2013-02-26 22:21:00,
2013-02-26 17:31:00,34.0,25.0,29.95,NE,54,3.0,16.0,69,0.00,,,0.00,,2013-02-26 22:31:00,
2013-02-26 17:41:00,34.0,25.0,29.95,NE,54,3.0,16.0,69,0.00,,,0.00,,2013-02-26 22:41:00,
2013-02-26 17:52:00,33.0,24.0,29.95,ENE,68,3.0,16.0,70,0.00,,,0.00,,2013-02-26 22:52:00,
2013-02-26 18:01:00,33.0,24.0,29.95,NE,54,7.0,29.0,70,0.00,,,0.00,,2013-02-26 23:01:00,
2013-02-26 18:11:00,33.0,24.0,29.95,NE,54,7.0,29.0,70,0.00,,,0.00,,2013-02-26 23:11:00,
2013-02-26 18:21:00,32.0,23.0,29.95,NNE,22,1.0,3.0,70,0.00,,,0.00,,2013-02-26 23:21:00,
2013-02-26 18:31:00,32.0,23.0,29.95,NNE,22,1.0,3.0,70,0.00,,,0.00,,2013-02-26 23:31:00,
2013-02-26 18:41:00,32.0,23.0,29.95,NNE,22,1.0,3.0,70,0.00,,,0.00,,2013-02-26 23:41:00,
2013-02-26 18:52:00,32.0,24.0,29.95,ENE,67,3.0,30.0,72,0.00,,,0.00,,2013-02-26 23:52:00,
2013-02-26 19:01:00,31.0,23.0,29.96,East,94,2.0,9.0,72,0.00,,,0.00,,2013-02-27 00:01:00,
2013-02-26 19:11:00,31.0,23.0,29.96,East,94,2.0,9.0,72,0.00,,,0.00,,2013-02-27 00:11:00,
2013-02-26 19:21:00,31.0,23.0,29.96,ENE,70,2.0,3.0,73,0.00,,,0.00,,2013-02-27 00:21:00,
2013-02-26 19:31:00,31.0,23.0,29.96,ENE,70,2.0,3.0,73,0.00,,,0.00,,2013-02-27 00:31:00,
2013-02-26 19:41:00,31.0,23.0,29.96,ENE,70,2.0,3.0,73,0.00,,,0.00,,2013-02-27 00:41:00,
2013-02-26 19:52:00,31.0,24.0,29.95,ENE,68,4.0,5.0,74,0.00,,,0.00,,2013-02-27 00:52:00,
2013-02-26 20:01:00,31.0,24.0,29.95,ENE,68,2.0,7.0,74,0.00,,,0.00,,2013-02-27 01:01:00,
2013-02-26 20:11:00,31.0,24.0,29.95,ENE,68,2.0,7.0,74,0.00,,,0.00,,2013-02-27 01:11:00,
2013-02-26 20:21:00,31.0,24.0,29.95,NE,36,3.0,31.0,74,0.00,,,0.00,,2013-02-27 01:21:00,
2013-02-26 20:32:00,31.0,24.0,29.94,NE,53,7.0,45.0,75,0.00,,,0.00,,2013-02-27 01:32:00,
2013-02-26 20:42:00,31.0,24.0,29.94,NE,53,7.0,45.0,75,0.00,,,0.00,,2013-02-27 01:42:00,
2013-02-26 20:52:00,31.0,24.0,29.94,NE,45,5.0,45.0,75,0.00,,,0.00,,2013-02-27 01:52:00,
2013-02-26 21:01:00,31.0,24.0,29.94,East,90,1.0,9.0,75,0.00,,,0.00,,2013-02-27 02:01:00,
2013-02-26 21:14:00,31.0,24.0,29.94,East,90,1.0,9.0,75,0.00,,,0.00,,2013-02-27 02:14:00,
2013-02-26 21:23:00,31.0,24.0,29.93,NE,45,1.0,5.0,75,0.00,,,0.00,,2013-02-27 02:23:00,
2013-02-26 21:32:00,31.0,24.0,29.93,NE,45,1.0,5.0,75,0.00,,,0.00,,2013-02-27 02:32:00,
2013-02-26 21:42:00,31.0,24.0,29.93,NE,45,1.0,5.0,75,0.00,,,0.00,,2013-02-27 02:42:00,
2013-02-26 21:52:00,31.0,24.0,29.93,NE,45,1.0,5.0,75,0.00,,,0.00,,2013-02-27 02:52:00,
2013-02-26 22:02:00,31.0,24.0,29.93,NNE,30,3.0,7.0,75,0.00,,,0.00,,2013-02-27 03:02:00,
2013-02-26 22:11:00,31.0,24.0,29.93,NNE,30,3.0,7.0,75,0.00,,,0.00,,2013-02-27 03:11:00,
2013-02-26 22:22:00,31.0,24.0,29.92,NE,45,2.0,7.0,76,0.00,,,0.00,,2013-02-27 03:22:00,
2013-02-26 22:31:00,31.0,24.0,29.91,ESE,112,2.0,5.0,76,0.00,,,0.00,,2013-02-27 03:31:00,
2013-02-26 22:32:00,31.0,24.0,29.92,NE,45,2.0,7.0,76,0.00,,,0.00,,2013-02-27 03:32:00,
2013-02-26 22:42:00,31.0,24.0,29.92,NE,45,2.0,7.0,76,0.00,,,0.00,,2013-02-27 03:42:00,
2013-02-26 22:52:00,31.0,24.0,29.91,ESE,112,2.0,5.0,76,0.00,,,0.00,,2013-02-27 03:52:00,
2013-02-26 23:01:00,31.0,24.0,29.91,ESE,112,2.0,5.0,76,0.00,,,0.00,,2013-02-27 04:01:00,
2013-02-26 23:11:00,31.0,24.0,29.91,ESE,112,2.0,5.0,76,0.00,,,0.00,,2013-02-27 04:11:00,
2013-02-26 23:21:00,31.0,24.0,29.91,ESE,112,2.0,5.0,76,0.00,,,0.00,,2013-02-27 04:21:00,